RH
4 5 5 5 15 43 52 52 57 65 70 69 60 51 65 78 94 97 76 78 90 87 72 61 64 65 61 61 72 74 93 74 94 98 97 96 97 98 95 89 79 95 96 93 99 97 85 51 47 46 41 33 31 28
5 6 6 7 10 14 24 31 31 42 56 57 55 47 51 48 51 55 58 74 86 91 68 61 60 58 78 70 84 55 65 90 96 87 97 93 93 96 92 93 75 83 75 71 92 80 60 50 43 41 39 36 35 31
6 7 8 9 10 12 15 18 25 34 28 34 55 64 79 76 64 77 59 63 75 77 75 55 46 48 45 32 44 47 58 94 94 98 97 94 98 94 98 92 97 76 74 74 61 50 51 46 44 40 37 38 34 26
10 11 11 11 11 12 12 12 21 26 25 24 30 44 58 70 86 97 98 89 87 85 77 38 30 19 22 47 62 73 93 97 96 97 98 98 99 94 94 97 96 86 72 70 59 55 48 44 50 44 39 38 30 34
17 22 23 20 17 15 15 17 23 23 27 23 33 39 33 36 58 63 56 45 49 61 50 30 15 17 60 89 96 98 96 97 98 97 96 96 96 98 92 97 96 92 73 63 50 50 51 51 46 45 42 40 39 47
22 29 35 34 28 20 17 19 22 25 26 38 44 55 72 80 87 84 54 35 39 43 40 24 15 93 96 97 97 96 96 97 97 96 96 97 97 97 97 96 96 100 79 62 53 47 44 45 47 44 48 45 59 69
22 28 38 39 38 32 20 20 22 24 29 37 52 63 80 82 92 97 64 44 38 45 42 40 65 93 97 96 97 97 97 96 97 98 97 96 96 97 96 96 98 98 93 76 65 52 46 58 54 54 69 74 82 83
20 27 43 38 40 40 23 19 20 25 32 53 57 67 70 71 58 46 45 54 46 46 74 98 85 96 95 96 98 97 96 97 97 96 97 96 96 96 96 97 97 96 98 86 72 71 64 71 74 82 93 90 93 94
22 21 22 34 35 31 20 20 21 27 41 54 54 68 82 92 94 94 89 90 98 88 95 96 97 96 93 97 97 97 96 95 96 98 96 95 98 98 98 96 96 96 96 95 98 94 92 97 98 95 97 98 95 98
22 22 28 27 30 21 20 20 26 31 50 54 61 66 88 93 94 94 92 99 99 99 99 98 98 96 97 96 96 97 97 97 95 97 95 100 99 98 97 97 97 96 96 96 96 96 97 96 96 96 91 89 78 67
18 26 31 22 26 20 19 23 28 39 50 53 68 71 77 85 90 93 97 97 97 98 95 96 97 97 97 97 96 96 97 96 95 94 91 98 99 99 98 98 98 97 97 96 95 95 96 96 96 96 96 96 96 95
16 17 18 22 21 19 18 25 27 46 50 52 58 64 60 66 67 70 82 91 96 98 96 96 96 97 97 97 96 96 96 95 97 97 94 96 100 99 98 99 98 98 96 96 97 97 96 96 96 95 94 95 96 95
15 13 18 20 19 17 20 23 33 48 48 52 55 65 75 67 69 79 86 88 92 99 98 97 97 98 97 96 96 97 93 95 92 90 96 100 99 98 98 98 97 97 97 97 97 96 96 93 94 96 92 83 66 47
15 12 16 18 16 15 24 22 35 50 46 53 64 73 77 89 98 100 100 100 100 98 99 98 98 96 96 96 96 91 96 87 95 94 99 99 98 98 97 96 96 96 96 94 92 89 81 73 64 52 42 29 21 16
16 14 16 17 15 14 25 24 30 56 42 63 79 86 93 100 100 100 99 98 100 100 99 97 96 96 97 96 97 98 92 95 91 97 98 99 98 97 96 97 84 56 43 38 39 37 33 28 24 19 15 13 12 11
18 14 14 15 15 17 25 27 28 37 50 79 86 91 96 97 99 99 100 99 100 98 88 89 97 97 96 96 88 98 88 96 99 98 98 98 97 97 93 75 55 46 38 32 30 27 22 19 17 14 12 11 10 9
22 16 14 14 16 24 29 24 21 55 78 89 100 100 100 100 96 90 97 98 98 97 91 73 92 99 99 95 97 100 100 97 95 96 97 98 97 92 70 52 41 36 32 28 24 20 17 15 13 12 12 11 10 9
24 18 14 14 16 25 32 22 38 80 98 100 97 91 92 94 96 90 95 85 95 92 85 86 98 93 100 100 100 100 99 98 98 97 98 94 73 53 47 42 36 30 26 22 19 17 16 15 14 13 12 10 10 10
27 20 14 13 16 23 27 40 58 99 100 100 100 99 96 99 99 91 92 92 94 90 78 92 96 98 100 100 100 98 97 97 94 88 75 60 54 49 44 38 32 28 24 21 19 18 17 17 15 13 13 14 18 25
32 23 14 12 18 21 27 43 62 90 100 100 100 100 100 98 100 100 100 90 88 82 92 97 99 100 99 99 99 98 97 97 82 62 54 52 49 43 38 33 30 28 26 24 23 22 21 19 17 16 19 24 36 57
35 26 14 12 20 24 26 46 60 78 97 100 100 98 100 100 100 100 99 90 72 82 98 100 100 99 99 98 97 90 77 74 68 67 54 49 44 40 38 36 34 31 31 30 28 26 26 24 22 24 30 46 67 70
38 31 16 14 15 26 35 43 56 75 94 100 99 98 98 98 98 98 90 66 88 98 98 100 100 99 96 88 79 76 64 66 63 59 54 50 47 44 41 40 39 37 38 39 38 36 33 31 32 37 52 73 77 74
42 37 23 20 23 27 42 49 57 57 71 83 94 92 98 96 96 96 95 96 98 98 100 95 92 90 82 72 73 70 66 63 60 57 53 51 49 48 48 48 47 48 47 45 46 49 49 49 52 65 81 87 82 82
47 37 29 30 29 37 47 56 59 63 69 79 91 98 98 98 95 89 94 96 99 100 100 94 89 86 81 76 74 69 65 62 60 58 56 54 52 54 55 57 58 58 59 60 61 62 68 76 81 89 93 90 90 90
52 42 38 41 43 41 48 63 66 72 72 78 87 93 96 97 96 96 97 98 97 96 91 87 87 86 85 80 75 73 69 65 63 60 57 57 62 62 63 69 73 75 76 80 82 85 88 91 94 97 95 95 93 90
51 49 53 52 54 51 46 67 72 78 80 81 88 93 99 96 95 96 96 95 97 97 97 95 95 89 84 82 77 74 73 73 67 64 67 72 65 64 64 65 70 80 94 95 96 96 95 97 96 96 97 98 98 97
67 65 70 67 64 69 60 57 74 76 77 80 81 76 72 81 91 94 96 96 97 97 97 98 92 82 78 80 80 81 79 75 63 62 63 62 56 51 50 49 51 59 86 100 99 98 99 98 98 98 98 99 99 98
94 84 83 81 72 74 66 54 71 77 77 74 69 69 73 69 78 89 94 96 97 96 96 95 91 88 83 84 83 82 81 70 63 62 58 52 47 42 39 38 40 46 57 88 99 99 99 98 98 98 98 99 99 99
98 89 91 94 88 79 80 65 68 72 75 72 65 64 72 78 84 84 80 76 76 79 82 84 83 83 88 87 86 85 77 74 69 64 58 50 44 40 37 35 36 44 50 60 88 99 99 98 98 98 98 98 98 99
98 95 89 91 99 84 88 83 72 67 68 68 67 76 82 78 74 68 61 56 52 53 55 63 78 88 89 90 93 93 92 88 81 71 66 62 56 48 40 33 29 30 39 51 56 85 97 98 98 99 98 98 98 100
97 93 84 85 100 95 95 84 68 63 67 79 89 92 85 80 74 64 60 61 62 70 86 91 90 92 94 96 96 96 94 85 79 75 73 70 65 54 38 24 17 16 22 33 43 48 68 96 99 98 98 98 99 99
87 86 85 85 100 99 96 84 80 89 98 97 94 90 85 87 85 88 85 92 93 95 96 96 96 96 96 97 97 95 90 89 89 85 78 70 63 54 35 22 18 15 14 16 25 37 43 47 72 97 98 98 98 98
88 93 94 100 100 100 98 98 100 100 99 100 97 93 90 87 87 84 91 83 82 89 94 96 97 98 98 98 98 96 89 84 84 82 75 66 52 38 27 23 27 31 30 19 15 20 31 38 41 44 77 97 98 98
Wind_Speed
33 34 33 33 32 31 30 30 30 31 31 30 29 27 26 24 23 23 22 20 25 29 30 28 26 28 28 30 31 24 29 22 17 16 11 9 7 5 12 21 28 27 26 23 28 22 8 12 18 28 22 29 24 10
32 33 33 33 33 32 31 31 30 30 30 30 30 28 27 24 22 23 25 23 23 28 32 28 29 31 21 15 24 28 29 27 20 13 5 7 19 25 22 14 21 34 27 33 23 21 8 7 14 22 24 25 22 24
33 33 33 34 33 33 33 34 34 33 33 32 31 29 26 25 23 22 25 21 24 29 31 23 19 18 15 24 27 33 31 28 26 19 23 26 15 18 19 25 18 36 32 27 33 34 25 18 15 23 25 27 21 17
34 34 34 34 35 34 34 34 35 36 36 34 31 29 26 23 22 25 21 22 22 26 34 21 23 27 21 15 17 26 30 26 20 19 24 31 35 23 25 19 29 27 30 30 29 19 27 29 21 20 18 18 17 12
34 35 35 36 35 35 35 33 36 38 34 32 30 30 30 28 27 27 25 23 20 20 28 32 30 12 15 13 15 18 16 17 17 21 25 30 30 27 19 17 10 24 30 27 28 26 20 28 32 17 15 13 11 10
36 37 37 37 37 36 35 34 36 40 33 33 33 35 34 29 26 27 27 22 11 17 24 31 27 9 20 19 11 7 6 9 13 18 17 11 17 20 10 5 3 16 26 27 28 35 26 24 29 24 15 14 14 15
38 39 40 38 37 37 35 35 36 39 35 36 37 36 27 21 19 18 19 18 17 15 19 17 9 16 19 21 9 6 2 4 7 5 9 8 8 8 2 4 8 12 16 18 16 25 32 26 25 20 15 20 22 24
40 41 40 39 37 36 35 35 36 36 37 34 33 23 17 12 8 7 10 10 12 11 10 6 12 16 20 24 14 5 6 6 5 6 10 9 14 12 9 7 5 12 19 18 18 20 22 25 23 23 23 27 31 32
40 41 40 38 36 35 33 35 36 35 34 31 24 17 12 12 7 4 1 1 3 4 4 7 18 18 21 16 3 2 12 30 34 31 22 22 25 14 5 9 5 10 16 28 27 26 29 32 33 33 33 34 35 38
40 42 40 36 35 32 33 34 34 35 28 24 18 13 12 11 9 9 7 2 4 3 3 8 15 19 17 14 5 5 7 10 12 16 20 31 34 16 8 7 9 13 16 20 29 36 39 41 43 45 46 46 46 46
41 41 39 33 32 30 33 33 34 31 27 16 12 11 9 8 6 5 4 4 5 2 9 15 16 15 11 11 8 6 7 7 8 15 12 16 30 24 13 18 18 21 24 27 29 34 35 38 39 37 35 31 29 29
41 38 35 31 31 30 31 31 34 27 28 13 13 3 10 9 7 5 7 6 6 6 20 19 14 13 10 6 6 7 9 7 7 8 9 12 27 23 20 27 31 33 33 35 34 35 34 34 32 31 32 31 29 27
39 35 33 30 29 30 29 30 30 26 23 9 13 10 6 7 8 7 9 7 13 14 18 16 11 7 3 4 7 7 9 11 14 11 12 26 32 33 35 35 36 38 37 38 38 37 36 35 32 28 28 26 22 19
37 32 29 27 29 29 25 29 29 24 17 8 6 10 8 6 8 10 19 17 13 12 10 7 6 4 6 8 8 8 10 10 7 11 16 28 31 34 36 37 36 36 34 32 31 28 27 25 24 22 20 18 16 14
35 28 26 27 28 27 23 27 29 17 16 9 7 9 16 12 11 13 13 10 8 4 4 3 9 7 7 6 6 8 6 8 9 18 29 29 30 30 29 27 25 24 23 22 22 20 20 19 18 16 15 14 11 8
35 29 26 28 28 23 21 23 21 15 18 11 15 19 14 10 11 11 5 4 3 2 4 5 4 3 6 5 6 7 7 9 30 32 29 27 27 25 22 20 18 18 17 17 17 17 16 14 13 10 8 5 2 4
32 30 28 28 24 21 18 19 19 22 13 20 24 21 14 10 13 12 6 3 3 2 0 1 3 5 5 6 6 8 21 41 36 31 27 25 24 20 17 15 13 13 12 12 12 11 10 8 6 4 3 5 7 10
29 28 25 26 21 19 14 18 19 22 27 27 29 26 16 11 12 11 6 7 2 0 4 4 6 9 8 16 31 42 40 37 32 28 25 21 18 15 14 12 11 10 9 8 6 5 3 3 4 6 8 11 14 17
27 27 23 24 20 15 15 18 18 14 22 25 23 27 23 16 14 13 7 5 6 12 20 16 15 37 40 42 38 36 33 31 28 24 19 17 14 12 10 8 7 6 4 3 3 5 7 9 10 13 15 18 19 20
23 23 20 20 19 14 10 12 14 14 16 19 22 23 25 25 15 9 7 8 10 24 49 49 42 39 38 36 34 31 27 23 18 15 14 12 10 8 6 4 3 3 5 6 8 10 12 13 15 18 20 21 21 17
19 19 14 15 14 12 11 11 9 10 11 14 18 26 29 22 26 26 37 48 49 51 45 38 35 34 31 29 26 23 19 17 14 11 9 7 6 4 2 3 5 7 8 10 12 13 15 17 19 21 21 19 16 15
16 17 10 11 13 10 12 11 6 8 10 9 12 18 25 31 35 37 39 42 42 36 35 32 29 27 24 21 19 16 15 13 10 8 6 4 3 4 5 7 8 10 12 13 15 17 18 20 22 21 19 15 14 15
14 14 10 7 8 9 8 9 6 4 3 5 4 9 12 16 17 17 24 30 31 29 27 24 23 21 18 16 14 12 10 9 7 5 4 4 4 5 7 9 11 14 16 17 18 19 20 21 20 17 14 12 12 11
10 9 6 4 5 6 8 7 6 6 5 5 6 10 12 15 16 19 21 20 21 21 20 18 17 15 13 12 11 8 7 5 4 3 3 4 6 8 10 12 14 16 17 18 19 18 16 15 14 13 11 10 9 6
5 3 3 5 4 5 4 5 5 4 5 4 5 6 5 6 11 13 14 14 16 16 16 15 14 12 11 8 7 5 4 4 5 6 7 7 8 10 11 13 15 17 18 19 18 15 12 10 10 8 7 6 4 3
1 0 3 4 4 3 3 4 3 4 4 4 4 5 8 5 3 5 10 11 11 13 13 12 11 9 7 6 4 4 4 5 6 7 8 10 11 12 12 13 15 17 18 17 14 13 11 8 6 5 5 4 4 3
0 1 5 5 3 2 1 2 2 3 4 4 6 3 2 2 3 8 9 10 10 11 10 9 8 6 5 4 3 3 3 5 6 7 7 9 11 12 12 13 13 14 15 14 12 10 8 6 5 4 4 3 3 3
1 2 4 4 3 2 1 1 2 3 3 2 1 1 2 3 6 11 10 9 9 8 7 6 4 2 1 1 1 2 3 3 4 6 8 8 9 11 12 13 14 14 15 16 14 11 8 6 4 4 3 3 3 3
1 3 4 4 3 1 1 1 1 3 4 4 1 0 3 9 11 11 9 8 7 7 7 7 6 4 2 1 1 1 3 5 7 10 12 13 14 15 16 16 16 16 15 16 18 12 8 6 4 3 3 3 3 3
3 5 5 5 3 2 2 3 3 3 4 5 4 8 12 12 9 7 5 4 3 4 5 6 6 4 3 2 1 3 4 6 7 9 10 12 13 14 15 16 15 15 15 14 13 15 10 7 4 3 4 4 4 4
7 7 7 6 3 1 2 2 3 3 4 6 13 13 10 7 5 3 2 2 4 5 6 4 4 5 5 4 4 4 5 6 7 9 10 12 14 15 16 16 16 15 14 12 11 10 11 9 6 5 5 5 5 5
11 9 7 6 4 3 2 0 2 6 14 18 14 11 8 5 3 3 2 3 2 2 2 2 3 4 4 5 4 5 7 8 10 12 14 15 17 18 18 18 17 15 14 12 11 10 9 8 8 6 5 5 5 5
7 6 6 6 7 6 4 4 9 15 15 12 10 8 5 3 1 2 1 0 2 3 3 3 2 2 3 4 6 8 10 11 13 15 16 17 18 19 19 18 17 16 14 13 11 10 10 9 8 7 7 6 6 6
Wind_Direction
348 347 344 350 349 343 337 332 329 327 325 324 322 320 317 312 310 298 294 289 290 291 288 292 293 292 291 291 297 303 302 310 296 255 227 232 247 261 298 277 234 196 187 204 216 220 264 192 224 228 243 246 259 286
348 345 347 349 347 345 341 337 334 331 329 326 321 318 314 313 309 303 295 293 289 283 292 294 292 289 296 291 286 284 276 277 260 265 259 303 289 299 302 286 243 220 207 198 201 213 185 236 226 231 234 243 246 255
341 339 342 345 344 342 338 335 331 329 328 327 324 320 315 309 308 304 298 302 291 292 299 294 301 298 271 295 287 272 277 282 269 278 279 279 259 283 285 281 281 213 209 205 214 230 220 221 231 230 235 236 246 247
338 337 338 336 335 337 335 335 335 331 326 326 324 319 314 312 304 301 299 305 298 298 294 308 315 313 299 285 276 267 272 273 269 267 268 259 276 286 285 283 300 208 201 201 200 211 216 218 242 242 243 231 246 224
339 340 340 335 332 330 330 331 337 336 330 325 322 318 311 302 297 293 291 297 297 287 291 305 316 323 297 305 282 296 270 257 264 269 268 271 278 288 296 279 211 183 191 194 201 211 219 218 229 241 238 224 213 190
341 341 338 337 334 330 329 329 332 339 335 328 319 313 309 304 290 290 288 291 284 295 302 310 315 336 2 350 329 301 261 253 255 259 272 282 263 260 286 306 44 175 185 193 200 209 215 218 220 230 225 209 178 167
342 340 337 334 333 332 332 332 333 338 336 330 324 321 315 303 289 273 277 283 286 296 300 314 330 335 342 3 47 43 156 218 237 202 233 263 237 204 15 46 60 159 173 190 191 199 206 206 205 199 185 178 164 162
343 341 335 334 334 334 334 336 338 340 338 333 334 339 344 344 322 277 271 265 280 290 301 293 319 322 339 360 46 53 85 159 134 134 95 98 80 76 55 22 106 151 166 168 175 177 200 175 168 154 161 157 156 154
345 341 338 336 337 336 338 340 342 341 340 337 339 341 347 355 7 358 23 15 317 264 285 293 314 329 328 353 99 74 57 64 70 70 74 71 68 62 49 16 97 141 158 152 155 162 162 155 152 151 149 149 151 144
345 341 337 336 338 339 343 344 343 342 344 342 348 2 15 32 52 64 49 354 31 9 294 321 313 327 339 3 52 103 69 61 45 47 65 66 80 96 92 63 85 118 135 145 153 147 144 139 136 136 136 138 140 144
346 342 341 340 341 344 346 347 345 345 354 355 7 20 27 39 47 48 30 38 13 16 345 336 337 339 358 9 50 73 83 70 51 49 69 65 79 98 87 99 100 104 116 127 129 127 132 135 137 137 135 131 129 127
347 344 344 345 345 348 348 349 348 352 355 355 9 14 37 38 28 35 17 12 359 354 348 342 347 349 4 29 65 74 73 78 66 45 66 68 91 109 105 112 111 110 109 110 110 113 117 119 119 120 116 113 113 114
349 346 345 345 346 350 348 350 353 356 351 343 9 16 23 28 28 26 349 334 330 332 344 337 347 360 4 65 67 68 68 83 75 69 84 95 107 111 109 110 110 107 107 106 104 104 103 102 101 101 101 103 108 113
351 348 348 347 348 349 350 354 356 356 354 1 15 26 34 8 354 325 320 321 324 333 342 346 31 47 49 56 65 76 85 80 72 102 98 113 111 108 104 98 95 91 89 89 91 94 97 100 105 109 114 119 125 128
351 350 347 346 347 349 351 354 356 343 7 29 16 7 354 334 332 324 321 325 321 327 1 358 46 50 55 73 66 96 78 93 117 126 122 119 112 106 102 101 103 105 103 103 104 108 111 113 113 113 113 113 113 113
349 348 350 347 346 350 353 357 349 353 24 20 7 357 355 346 354 354 332 298 279 329 40 26 33 54 51 55 65 69 96 109 134 131 126 118 111 109 110 113 111 105 101 99 100 105 107 107 106 105 103 92 51 344
349 348 352 354 354 353 354 355 359 30 25 20 7 3 359 351 358 7 10 333 261 265 308 127 70 63 60 61 79 81 123 132 132 128 122 116 114 114 115 114 111 106 101 97 97 96 95 94 87 64 16 338 323 315
345 349 352 356 358 1 359 14 25 33 27 15 13 12 6 8 13 11 351 6 23 263 154 105 105 112 81 93 111 121 127 129 128 124 121 119 122 120 116 113 110 105 99 92 85 75 57 22 353 337 327 320 316 312
343 347 351 356 2 8 20 25 31 34 27 20 15 14 18 11 7 22 39 79 81 123 121 103 102 110 113 116 120 124 126 126 123 121 124 125 122 117 112 106 97 87 70 43 10 348 337 332 328 322 319 318 318 315
341 346 348 355 4 6 25 26 31 38 34 32 34 35 29 24 28 48 80 108 123 128 110 106 107 111 115 118 121 121 119 119 121 122 122 118 115 111 101 83 52 14 346 335 329 325 323 321 319 318 320 321 318 310
338 345 347 -0 4 15 32 34 44 37 39 47 61 67 70 79 91 111 116 113 113 101 97 102 107 111 114 115 116 119 122 120 119 119 118 113 106 91 58 1 336 325 323 320 316 314 313 312 313 314 315 314 307 306
334 342 343 8 12 17 21 28 51 68 61 62 68 83 88 88 90 93 101 103 93 93 97 103 107 108 110 114 113 113 111 105 101 95 84 73 49 13 350 337 327 320 317 316 315 314 312 311 312 313 312 307 305 307
321 334 339 335 4 15 14 29 48 77 85 73 70 86 97 98 92 94 90 92 99 100 102 104 104 105 108 108 107 107 103 100 90 78 57 32 4 343 333 328 324 322 319 316 314 312 309 307 306 304 299 296 303 304
313 329 338 337 349 11 22 40 54 68 74 87 120 110 107 106 109 104 103 104 104 104 106 108 109 110 110 103 97 95 91 86 77 57 29 0 352 348 338 329 325 321 318 314 311 307 304 301 298 292 286 290 295 293
306 325 347 345 347 6 21 28 37 76 92 103 137 126 114 132 122 116 116 117 119 117 117 115 109 101 95 95 94 88 75 53 36 22 9 359 351 343 342 342 338 331 324 321 319 315 309 299 284 274 271 278 286 296
221 159 359 345 352 10 25 32 59 84 91 123 122 128 130 130 110 137 137 132 133 129 123 116 110 109 105 99 95 79 52 31 18 6 360 353 347 340 335 333 333 333 332 328 324 320 316 309 296 281 273 279 282 288
346 301 347 353 346 351 16 57 110 121 95 116 127 143 151 143 142 160 153 146 145 143 138 131 125 113 95 84 74 43 19 11 4 356 343 330 324 322 322 321 322 331 340 338 333 333 329 316 296 276 268 269 270 275
243 324 338 340 345 347 52 141 172 176 166 161 143 189 212 198 171 163 160 158 159 162 165 168 172 164 69 40 20 4 357 348 347 348 343 337 335 337 339 338 341 341 347 357 355 346 336 321 299 282 275 273 264 262
243 325 329 329 323 315 187 183 184 200 204 201 200 299 157 149 149 149 153 161 175 190 201 211 219 213 221 302 348 327 331 350 354 354 352 353 353 351 349 347 345 346 347 344 348 349 342 328 303 283 278 277 271 259
332 329 327 327 294 299 240 221 229 232 218 216 204 158 148 143 138 139 148 167 184 191 195 193 185 200 201 204 320 334 337 336 338 341 345 346 344 343 341 340 340 342 343 338 335 341 347 345 327 295 285 284 276 263
306 310 312 307 270 271 222 234 251 241 210 183 158 154 151 144 136 122 139 178 171 168 170 190 215 216 222 262 297 300 310 312 316 325 330 334 337 338 338 338 339 337 333 332 332 333 338 340 327 305 288 286 286 271
287 283 280 268 226 210 199 228 143 143 145 148 149 150 154 151 130 101 81 164 165 167 181 203 212 226 256 276 283 293 306 316 322 326 329 330 330 332 335 334 333 331 328 326 327 330 329 330 330 316 299 286 286 288
289 268 247 219 197 186 179 166 162 162 166 169 173 176 182 196 252 293 301 302 228 234 243 243 241 248 263 288 297 299 305 310 316 320 321 321 322 323 326 328 328 326 325 323 319 317 320 320 319 322 313 296 284 281